FW4835 Weather Reports


Display with metric or nautical units.
time (UTC)temp
F
wind
direction
speed
MPH
gust
MPH
rain 1hr
in
rain 24hr
in
rain mn
in
humidity
%
barometer
mb
20260831161512 61 99 1.0 4.0 0.00 0.00 0.00 80 1007.7
20260831160006 60 319 1.0 5.0 0.00 0.00 0.00 81 1007.8
20260831154617 59 300 1.0 6.0 0.00 0.00 0.00 84 1008.0
20260831153056 58 338 1.0 3.0 0.00 0.00 0.00 87 1008.0
20260831151554 56 309 1.0 3.0 0.00 0.00 0.00 88 1008.1
20260831150051 56 293 1.0 3.0 0.00 0.00 0.00 89 1008.1
20260831144552 56 302 0.0 2.0 0.00 0.00 0.00 90 1008.2
20260831143059 55 24 0.0 5.0 0.00 0.00 0.00 90 1008.1
20260831141550 55 321 0.0 1.0 0.00 0.00 0.00 91 1008.2
20260831140046 54 311 0.0 3.0 0.00 0.00 0.00 91 1008.1
20260831134544 54 313 0.0 1.0 0.00 0.00 0.00 90 1008.1
20260831133046 54 313 0.0 2.0 0.00 0.00 0.00 90 1008.3
20260831131544 55 332 0.0 2.0 0.00 0.00 0.00 89 1008.4
20260831130039 55 305 0.0 3.0 0.00 0.00 0.00 89 1008.5
20260831124546 55 307 1.0 3.0 0.00 0.00 0.00 90 1008.6
20260831123036 55 44 0.0 3.0 0.00 0.00 0.00 90 1008.6
20260831121535 55 325 0.0 2.0 0.00 0.00 0.00 90 1008.7
20260831120050 55 82 0.0 2.0 0.00 0.00 0.00 90 1008.8
20260831114532 55 202 0.0 1.0 0.00 0.00 0.00 90 1008.8
20260831113030 55 202 0.0 1.0 0.00 0.00 0.00 89 1008.9
20260831111527 56 202 0.0 1.0 0.00 0.00 0.00 88 1009.0
20260831110027 56 199 0.0 5.0 0.00 0.00 0.00 88 1008.9
20260831104523 56 344 0.0 3.0 0.00 0.00 0.00 88 1009.0
20260831103023 56 9 0.0 1.0 0.00 0.00 0.00 88 1009.2
20260831101517 57 156 0.0 1.0 0.00 0.00 0.00 87 1009.4
20260831100014 57 146 0.0 2.0 0.00 0.00 0.00 86 1009.5
20260831094511 58 16 0.0 2.0 0.00 0.00 0.00 86 1009.6
20260831093010 58 17 1.0 3.0 0.00 0.00 0.00 86 1009.9
20260831091608 58 319 0.0 2.0 0.00 0.00 0.00 86 1009.9
20260831090005 58 332 0.0 2.0 0.00 0.00 0.00 85 1009.9
20260831084508 59 221 0.0 2.0 0.00 0.00 0.00 85 1010.1
20260831083001 59 209 1.0 2.0 0.00 0.00 0.00 85 1010.3
20260831081604 59 205 0.0 2.0 0.00 0.00 0.00 85 1010.4
20260831080057 59 332 0.0 2.0 0.00 0.00 0.00 85 1010.6
20260831074555 60 312 0.0 3.0 0.00 0.00 0.00 84 1010.6
20260831073056 60 65 0.0 3.0 0.00 0.00 0.00 84 1010.6
20260831071555 60 339 1.0 3.0 0.00 0.00 0.00 84 1010.6
20260831070051 60 246 0.0 2.0 0.00 0.00 0.00 83 1010.8
20260831064548 61 74 0.0 2.0 0.00 0.00 0.00 83 1011.0
20260831063046 61 17 1.0 2.0 0.00 0.00 0.00 82 1011.0
20260831061546 61 311 0.0 2.0 0.00 0.00 0.00 82 1011.0
20260831060047 61 296 1.0 4.0 0.00 0.00 0.00 82 1011.1
20260831054542 61 271 1.0 3.0 0.00 0.00 0.00 82 1011.4
20260831053040 62 235 0.0 3.0 0.00 0.00 0.00 81 1011.7
20260831051552 61 11 0.0 3.0 0.00 0.00 0.00 81 1011.7
20260831050038 62 105 0.0 2.0 0.00 0.00 0.00 80 1011.9
20260831044536 62 98 0.0 3.0 0.00 0.00 0.00 80 1011.9
20260831043036 62 286 1.0 3.0 0.00 0.00 0.00 80 1012.1
20260831041537 61 88 0.0 2.0 0.00 0.00 0.00 80 1012.1
20260831040037 62 355 0.0 1.0 0.00 0.00 0.00 78 1012.2
20260831034540 62 360 0.0 1.0 0.00 0.00 0.00 76 1012.3
20260831033034 63 360 0.0 2.0 0.00 0.00 0.00 75 1012.1
20260831031533 64 355 0.0 1.0 0.00 0.00 0.00 73 1012.2
20260831030031 65 355 0.0 1.0 0.00 0.00 0.00 71 1012.2
20260831024534 66 315 0.0 2.0 0.00 0.00 0.00 69 1012.3
20260831023029 67 128 1.0 3.0 0.00 0.00 0.00 67 1012.4
20260831021530 68 290 1.0 6.0 0.00 0.00 0.00 65 1012.7
20260831020028 68 326 1.0 8.0 0.00 0.00 0.00 64 1012.9
20260831014529 69 165 1.0 4.0 0.00 0.00 0.00 62 1012.9
20260831013027 69 286 0.0 3.0 0.00 0.00 0.00 60 1013.1
20260831011536 69 199 1.0 6.0 0.00 0.00 0.00 60 1013.3
20260831010022 70 213 2.0 4.0 0.00 0.00 0.00 59 1013.3
20260831004521 70 252 2.0 7.0 0.00 0.00 0.00 59 1013.6
20260831003028 70 98 1.0 5.0 0.00 0.00 0.00 58 1013.5
20260831001516 71 255 2.0 6.0 0.00 0.00 0.00 58 1013.6
20260831000013 71 261 2.0 5.0 0.00 0.00 0.00 56 1013.9
20260830234509 71 230 1.0 6.0 0.00 0.00 0.00 55 1013.7
20260830233005 72 254 1.0 6.0 0.00 0.00 0.00 55 1014.1
20260830231502 71 250 1.0 5.0 0.00 0.00 0.00 56 1014.2
20260830230057 72 209 2.0 4.0 0.00 0.00 0.00 55 1014.5
20260830224556 71 276 1.0 5.0 0.00 0.00 0.00 57 1014.6
20260830223108 71 163 1.0 5.0 0.00 0.00 0.00 58 1014.7
20260830221549 71 283 1.0 3.0 0.00 0.00 0.00 57 1014.9
20260830220042 71 166 1.0 7.0 0.00 0.00 0.00 58 1015.1
20260830214539 71 234 2.0 4.0 0.00 0.00 0.00 57 1015.2
20260830213036 71 341 1.0 9.0 0.00 0.00 0.00 57 1015.2
20260830211532 70 309 1.0 8.0 0.00 0.00 0.00 57 1015.4
20260830210027 70 295 1.0 5.0 0.00 0.00 0.00 57 1015.6
20260830204522 70 33 2.0 8.0 0.00 0.00 0.00 57 1015.7
20260830203023 70 355 1.0 9.0 0.00 0.00 0.00 56 1015.8
20260830201515 69 288 2.0 6.0 0.00 0.00 0.00 57 1016.0
20260830200031 68 173 1.0 8.0 0.00 0.00 0.00 59 1016.0
20260830194509 68 190 1.0 5.0 0.00 0.00 0.00 58 1016.0
20260830193006 68 156 1.0 5.0 0.00 0.00 0.00 62 1016.2
20260830191505 67 315 1.0 6.0 0.00 0.00 0.00 59 1016.5
20260830190007 67 5 1.0 3.0 0.00 0.00 0.00 62 1016.4
20260830184501 66 219 1.0 5.0 0.00 0.00 0.00 63 1016.5
20260830183111 66 116 1.0 8.0 0.00 0.00 0.00 64 1016.6
20260830181555 64 109 1.0 3.0 0.00 0.00 0.00 70 1016.8
20260830180053 63 29 1.0 3.0 0.00 0.00 0.00 73 1016.8
20260830174604 62 39 0.0 3.0 0.00 0.01 0.00 73 1016.8
20260830173048 62 30 0.0 3.0 0.00 0.01 0.00 76 1017.1
20260830171547 61 243 0.0 2.0 0.00 0.01 0.00 78 1017.0
20260830170041 60 315 1.0 3.0 0.00 0.01 0.00 82 1017.0
20260830164537 58 34 0.0 2.0 0.00 0.01 0.00 84 1017.0
20260830163036 57 28 0.0 2.0 0.00 0.01 0.00 90 1017.1